Theta_e
313 316 318 320 318 316 315 314 314 314 314 316 316 316 316 316 315 315 317 317 315 316 318 316 315 314 314 314 313 312 312 312 311 311 311 313 314 314 315 315 315 315 315 316 315 314 314 314 314 314 313 313 312 312 311 311 311 310 309 309 309 309 308 308 307 306 306 306 306 306 306 306 305 304 303 303 303 302 301 299 298 298 298 298 298 298
314 316 318 318 316 315 316 316 314 314 314 315 315 315 316 316 316 315 317 317 314 314 316 316 315 314 313 313 313 312 312 312 311 311 311 312 313 314 314 314 315 315 315 315 314 314 313 314 314 314 313 313 313 312 311 311 310 310 309 309 309 309 308 308 308 307 307 307 307 307 307 307 306 305 304 303 303 302 301 299 298 298 298 298 298 298
316 317 316 315 315 315 316 316 315 315 315 316 316 316 317 317 317 315 316 317 313 314 318 317 314 313 313 313 312 312 312 312 313 313 313 313 313 313 313 314 314 314 314 314 314 314 314 314 314 313 313 313 312 312 311 311 310 309 309 309 309 308 308 308 308 307 307 307 306 306 306 306 306 305 304 303 302 302 301 299 298 298 298 298 298 298
316 318 315 313 314 316 316 315 315 315 315 316 316 317 317 316 316 315 316 316 313 314 318 317 313 312 312 312 312 311 310 312 313 314 314 314 313 313 314 314 314 314 314 314 314 314 314 314 314 313 313 313 312 312 311 310 310 309 309 308 308 308 308 308 308 307 306 306 305 305 305 304 304 303 303 301 301 300 299 299 298 298 297 298 298 298
315 317 316 314 315 316 316 315 316 315 314 316 316 316 316 316 317 315 315 317 316 316 316 314 314 313 313 313 314 313 312 312 312 313 313 313 314 314 315 314 315 315 314 314 314 314 314 314 314 314 313 313 312 311 311 310 310 309 309 308 308 308 308 308 307 307 306 305 304 304 303 302 302 301 300 300 300 300 299 299 298 298 297 297 297 298
313 314 315 317 318 318 317 316 317 317 315 315 316 317 316 316 316 316 317 317 318 321 317 315 316 316 317 317 315 314 314 313 312 312 312 312 313 315 316 316 316 315 314 314 314 314 314 314 314 314 313 313 312 311 311 310 310 309 309 308 308 308 308 307 307 306 306 305 304 304 304 303 302 301 301 302 302 301 301 301 299 298 297 297 297 297
313 313 315 318 320 320 319 318 320 320 316 314 319 322 319 317 318 318 319 319 323 325 319 317 320 318 317 318 316 317 318 317 316 315 313 311 313 315 316 317 316 315 314 314 314 314 315 314 314 313 313 313 312 311 310 309 309 308 308 308 308 308 307 307 307 306 305 305 305 305 304 305 304 304 304 304 303 303 302 301 300 299 298 297 297 297
315 314 317 319 318 320 319 317 320 320 316 316 322 327 323 321 322 320 320 322 324 322 317 318 321 318 316 316 317 318 318 319 318 317 315 312 312 315 316 316 316 316 314 314 314 314 314 314 314 314 314 314 312 311 310 309 309 308 308 308 307 307 307 307 307 306 306 305 305 305 304 304 304 304 305 304 303 303 301 300 299 298 297 297 296 296
318 318 321 321 318 318 318 317 319 319 317 317 320 323 321 320 321 319 318 321 322 319 316 318 318 317 317 315 316 316 315 317 315 315 316 313 312 314 315 316 316 316 316 314 314 313 314 314 314 314 314 313 312 311 310 309 309 308 308 307 307 307 307 307 307 306 306 306 305 305 304 304 304 303 303 302 302 302 301 300 298 297 296 296 296 296
318 317 317 321 321 318 320 323 323 321 319 317 317 320 323 323 321 318 315 317 320 318 317 319 317 316 318 316 316 315 314 316 314 314 315 313 313 314 314 316 316 316 316 314 314 314 314 314 314 314 313 313 312 310 310 309 309 308 307 307 307 307 307 307 307 306 306 306 305 305 305 304 304 303 302 301 301 300 300 299 298 297 296 296 296 296
313 311 311 317 318 316 320 319 313 316 317 314 315 319 324 327 324 321 320 317 317 317 318 319 318 316 317 318 317 315 316 317 315 314 314 312 312 313 314 315 316 316 315 315 315 314 315 314 314 314 313 312 311 310 309 308 308 308 307 307 307 307 307 307 306 306 306 306 306 306 305 305 304 303 302 302 301 300 299 298 298 297 296 296 296 296
312 311 313 316 312 312 318 314 309 312 312 314 320 321 321 326 325 322 321 317 316 317 318 318 318 316 316 317 316 315 316 316 315 316 319 318 313 313 315 315 316 316 315 315 314 315 315 314 314 314 312 312 311 310 309 309 309 308 308 307 307 307 307 307 306 306 305 305 306 306 306 306 305 304 303 303 302 301 300 298 297 297 296 296 296 295
315 314 314 314 312 312 317 317 316 316 313 315 320 319 318 321 321 319 320 320 319 318 318 316 316 315 315 316 316 316 317 317 315 315 317 318 313 312 316 316 316 316 315 314 315 315 315 314 314 313 312 312 311 310 310 309 309 309 309 308 308 308 308 307 307 306 305 305 306 307 307 307 306 305 304 303 302 301 300 299 298 297 297 296 296 295
322 319 314 313 313 313 315 316 317 318 316 314 317 318 318 318 317 318 322 324 319 319 320 315 315 316 316 319 318 315 317 316 313 312 313 314 313 314 316 316 316 316 315 315 315 315 315 315 314 313 312 312 312 311 311 311 311 311 310 309 309 309 308 308 307 307 306 305 306 307 307 306 306 306 305 304 303 301 300 299 298 298 297 297 297 296
322 319 316 316 317 314 313 314 316 319 316 313 315 317 317 321 324 321 323 322 318 323 323 314 317 321 317 319 320 316 314 312 310 312 314 314 314 315 315 315 315 316 316 315 316 316 315 315 314 313 312 312 313 313 312 313 312 311 311 310 310 310 309 309 308 307 306 306 306 306 306 305 305 306 306 304 303 302 300 299 298 297 297 297 296 296
317 318 318 315 314 313 313 313 315 319 318 314 316 316 313 320 324 318 320 320 316 321 322 315 320 324 316 315 317 315 314 313 311 311 311 311 313 314 313 314 315 316 317 316 316 315 314 314 313 313 312 313 314 314 313 314 313 313 312 312 312 311 310 310 309 308 307 306 305 306 306 305 304 304 305 305 304 302 301 299 298 297 296 296 296 295
315 319 320 312 311 312 311 312 313 316 318 315 315 315 314 318 319 316 321 322 316 316 318 316 319 320 316 315 316 314 315 315 313 312 310 309 311 312 312 313 314 316 316 316 315 314 313 313 312 312 312 313 314 314 314 314 314 314 314 313 312 311 310 310 309 309 308 306 305 305 305 305 304 304 305 306 306 304 301 299 297 296 296 295 295 294
317 317 318 315 315 312 306 308 312 311 314 316 317 315 314 317 319 319 323 323 318 317 318 316 316 315 315 317 318 316 315 315 316 316 314 311 309 310 311 311 314 315 315 314 314 313 313 313 312 312 312 313 313 314 314 314 314 314 314 313 313 312 311 310 310 308 307 306 306 305 305 305 305 304 304 305 305 304 302 299 297 296 295 294 294 294
319 316 318 317 317 313 307 310 314 310 309 314 317 315 316 318 320 320 320 320 318 317 317 316 316 315 314 315 315 316 315 316 317 316 315 313 311 310 311 311 312 314 314 314 314 313 313 312 313 312 312 312 313 313 313 314 314 314 314 313 312 312 311 310 309 308 307 306 306 306 305 305 305 304 302 302 303 303 302 301 299 297 295 294 293 293
317 316 318 316 313 313 311 312 318 315 310 312 313 314 315 316 319 321 319 318 318 317 316 317 316 315 315 316 315 315 316 317 316 314 314 313 311 310 311 312 312 313 314 314 313 313 313 312 312 312 312 312 312 312 312 313 313 314 313 313 313 312 311 310 309 308 308 307 306 305 304 304 303 303 302 301 301 302 302 302 300 298 296 294 293 293
315 316 316 314 311 313 313 313 317 318 315 314 314 315 314 312 317 319 316 316 317 315 315 315 315 315 315 317 316 315 317 319 318 318 317 312 310 310 311 311 312 313 314 314 313 313 312 312 312 312 312 312 311 311 311 311 312 313 313 313 312 312 311 310 310 308 308 307 306 305 304 304 303 302 302 301 299 300 300 300 300 298 296 294 294 293
316 317 316 315 313 313 314 314 315 317 317 316 315 315 314 313 314 316 315 316 316 314 314 315 315 315 314 316 315 313 317 322 319 319 319 313 309 310 311 311 312 313 313 313 312 312 312 312 312 312 311 311 311 311 312 311 311 312 312 312 312 312 311 311 310 309 309 308 306 305 304 303 302 301 301 301 299 298 298 298 298 298 297 295 294 293
315 317 316 315 316 317 317 314 313 315 315 314 314 315 315 313 313 314 315 315 315 314 315 314 315 315 313 314 315 312 315 317 314 313 316 311 308 311 312 312 313 313 312 313 312 312 312 312 312 312 312 311 311 311 312 311 311 311 311 311 311 311 311 311 311 310 308 307 307 306 305 303 302 300 299 299 298 297 297 297 297 296 296 295 294 293
314 315 314 314 317 320 320 315 312 312 312 312 314 314 314 313 313 314 313 312 314 314 314 315 315 315 314 315 315 313 312 312 311 310 311 309 309 312 312 312 313 313 312 313 312 312 312 312 312 312 312 312 311 311 312 312 311 311 311 310 310 310 310 310 309 309 308 307 307 306 305 303 302 301 299 299 297 296 295 296 295 295 295 294 293 292
314 315 314 315 317 318 318 315 313 311 311 313 315 314 314 314 313 313 312 312 313 313 314 315 314 315 315 314 314 313 312 312 312 310 309 308 310 311 311 312 312 312 312 312 312 312 312 312 312 312 312 312 311 311 312 312 311 310 310 310 309 309 310 309 308 307 307 306 306 305 304 303 302 301 300 299 297 296 294 294 294 294 293 293 293 292
315 315 314 314 316 316 316 315 316 316 313 312 314 313 313 313 313 313 313 313 314 314 314 314 314 314 314 313 313 312 312 312 312 309 308 309 309 310 311 311 311 311 312 312 311 312 311 311 312 312 312 312 311 311 311 311 311 311 310 310 309 309 309 308 308 307 305 304 304 304 303 302 301 300 299 298 298 296 294 293 293 293 293 293 292 291
313 313 313 314 314 315 315 314 317 318 314 312 314 314 312 313 313 312 313 314 314 314 314 314 314 314 314 313 313 312 312 312 312 311 311 310 309 310 310 310 311 311 311 311 310 310 310 311 311 312 312 312 311 311 311 311 311 310 310 309 309 309 309 308 307 306 305 304 302 302 302 301 301 300 299 298 298 297 295 293 292 292 292 292 291 291
311 311 313 313 313 314 315 314 315 315 313 313 314 314 313 312 312 312 312 313 313 314 314 314 314 314 314 313 312 313 312 312 312 312 311 310 310 311 310 310 311 310 311 310 309 309 309 310 311 311 311 311 311 311 311 311 311 310 309 309 309 309 309 308 307 306 305 303 302 302 301 301 300 299 298 298 297 295 294 293 292 291 291 291 291 290
313 313 313 313 312 313 313 313 314 314 314 314 314 314 313 313 313 312 312 312 312 313 313 313 313 314 314 312 312 313 312 312 312 312 311 311 310 310 309 309 309 310 309 308 308 308 309 310 311 310 310 310 311 311 311 311 311 309 309 309 309 309 309 308 307 305 304 303 303 302 301 300 299 297 297 297 296 295 294 293 292 291 291 290 290 290
312 312 313 313 312 313 312 312 312 313 313 313 313 313 313 313 313 312 312 312 312 312 312 312 313 313 312 312 312 312 312 312 312 311 311 310 309 309 308 308 308 309 309 308 308 308 308 309 310 310 310 310 310 311 311 311 311 310 310 310 309 309 309 308 306 305 304 304 303 302 300 299 298 297 296 296 296 295 294 293 292 291 290 290 290 290
310 312 313 313 312 312 312 312 312 312 312 313 313 313 312 312 312 312 312 312 312 312 312 312 312 312 311 311 311 311 311 311 311 310 310 309 310 309 308 308 308 309 309 308 309 309 309 309 309 309 310 310 310 310 310 310 310 310 310 310 309 309 309 308 306 305 305 304 303 301 299 298 297 297 296 295 295 295 294 293 292 291 290 290 290 290
310 311 312 313 313 313 312 312 311 312 312 312 312 312 312 312 312 312 313 312 312 312 312 313 312 312 311 311 311 311 311 311 311 310 309 309 310 309 308 308 309 309 309 309 309 309 309 309 309 309 310 310 310 310 310 310 310 310 310 309 309 309 308 307 306 306 305 304 302 300 300 299 298 297 296 295 295 294 294 293 292 291 290 290 290 289
309 310 312 313 314 314 314 313 312 312 312 313 313 312 312 312 312 312 313 312 312 312 312 313 313 312 311 311 311 311 310 310 310 309 309 309 309 309 309 309 309 309 309 309 309 310 310 310 310 310 309 310 310 310 310 310 310 310 310 310 309 309 308 307 307 306 305 304 302 301 300 299 298 296 296 295 294 294 293 292 291 290 290 290 289 289
310 310 311 312 313 314 314 314 313 313 314 314 315 314 312 312 312 312 313 313 312 312 312 312 312 311 312 311 311 311 310 310 310 310 309 309 309 309 309 309 309 309 309 309 309 309 309 310 310 310 310 310 310 310 310 310 309 310 310 309 309 309 308 308 307 306 305 303 302 301 299 298 297 296 295 295 294 293 293 292 291 290 289 289 289 289
310 310 310 311 312 312 313 314 314 315 314 314 315 314 311 311 312 312 313 312 311 312 311 311 311 311 311 311 311 310 310 310 310 309 309 309 309 308 308 308 308 308 308 308 308 309 309 309 309 309 310 310 311 311 310 310 310 309 309 309 309 309 308 307 307 306 304 303 302 301 299 298 297 296 295 295 294 293 292 292 291 290 289 289 289 289
311 310 310 311 311 312 312 313 314 315 314 313 313 313 311 311 311 312 312 312 311 311 311 311 311 310 310 310 310 309 309 309 309 309 309 309 307 306 306 306 306 306 306 306 307 307 308 308 309 310 310 310 311 311 310 310 310 309 309 309 309 308 308 307 306 305 304 303 302 301 300 299 297 296 295 294 294 293 292 291 290 290 289 289 289 288
310 310 311 311 312 313 312 312 313 313 313 312 313 313 311 310 311 311 312 312 309 308 308 308 309 309 309 308 307 307 308 308 309 309 308 306 305 304 304 304 304 304 305 305 305 306 306 306 307 308 308 309 310 310 310 310 310 309 308 309 308 308 308 307 306 306 305 304 303 302 301 299 298 296 295 294 294 293 292 291 290 290 289 289 288 288
309 310 311 312 313 312 312 312 312 312 313 313 314 314 311 310 311 311 312 312 306 302 303 304 303 303 303 303 302 303 306 309 309 308 305 303 303 303 302 302 302 301 302 302 303 304 305 305 306 306 307 308 308 309 309 309 309 309 308 308 308 308 307 307 307 306 306 305 304 303 301 299 298 297 296 295 294 293 292 291 290 290 289 289 288 288
308 308 308 310 312 312 313 313 312 313 313 311 310 310 308 309 310 310 314 311 302 298 301 302 300 300 300 299 300 301 304 307 307 304 301 301 301 300 299 299 299 299 299 300 300 301 301 302 304 305 306 306 306 307 308 308 308 308 308 307 307 307 307 307 307 307 306 306 305 303 301 299 297 296 295 295 294 293 292 291 290 289 289 288 288 287
306 307 307 309 310 310 312 312 312 314 310 303 301 303 302 304 309 312 313 307 298 297 301 301 299 299 298 298 299 298 299 301 301 300 299 298 298 297 296 296 296 296 297 298 298 298 298 299 301 303 304 305 306 306 306 306 306 306 306 306 306 306 306 306 306 306 305 303 302 301 300 299 298 296 295 295 293 292 291 290 290 289 288 288 287 286
301 302 304 308 309 309 311 311 311 312 306 299 299 301 300 303 310 312 306 299 295 297 300 299 298 298 297 297 297 296 297 298 297 297 296 296 296 295 295 295 295 296 296 297 297 297 297 298 299 300 301 303 304 305 306 305 304 304 304 304 304 305 305 305 305 304 303 302 300 300 299 298 297 296 294 293 292 291 290 289 289 289 288 287 286 286
298 299 302 305 305 306 307 308 310 310 304 298 299 299 298 302 305 303 298 295 295 297 298 297 296 295 295 296 295 294 295 295 295 295 295 295 294 294 294 295 295 295 296 296 296 296 297 297 298 299 300 301 302 304 305 305 304 303 302 302 303 303 303 302 302 302 302 301 300 299 298 297 296 294 293 292 291 290 289 288 288 288 287 286 285 285
296 297 298 299 300 301 303 305 309 308 302 298 298 297 297 297 297 296 295 295 296 296 295 295 294 293 294 294 294 294 294 294 294 294 294 294 294 295 295 296 296 296 296 296 296 296 297 297 298 299 300 301 301 302 302 303 304 303 303 302 302 302 301 301 300 300 300 300 299 299 298 296 295 293 292 291 290 289 289 288 288 287 286 285 285 285
295 296 296 298 300 301 300 301 303 301 298 297 297 296 295 295 295 295 296 296 295 294 293 293 293 293 293 293 293 293 294 293 294 294 294 294 295 295 295 296 296 296 297 297 297 297 297 298 298 299 300 301 302 301 301 302 302 302 302 302 302 302 302 301 300 299 299 299 298 297 296 295 294 293 291 290 290 289 288 288 287 286 285 284 284 285
296 296 296 297 298 297 297 297 298 297 296 295 295 294 293 294 294 295 295 296 295 293 293 293 293 293 293 293 293 293 293 294 294 294 294 294 294 294 295 295 295 295 296 296 296 296 296 297 297 297 298 299 300 301 301 301 301 301 300 300 300 300 301 302 301 300 299 298 297 296 295 294 292 291 290 290 289 289 288 288 287 286 285 284 284 284
295 294 294 295 295 294 294 295 295 294 293 293 293 293 293 294 294 294 294 294 293 292 292 292 292 292 292 292 292 292 293 293 293 293 292 292 292 292 293 293 293 293 294 294 294 293 294 294 295 296 296 296 297 299 300 300 300 300 300 300 300 300 300 301 301 301 300 299 297 296 294 293 291 290 289 288 288 288 288 288 287 286 285 284 284 284
293 293 293 292 292 291 291 292 293 292 292 292 292 292 293 294 293 292 293 292 291 291 291 290 290 290 290 290 291 291 291 291 291 291 290 290 291 291 291 291 291 292 292 292 292 292 292 292 293 294 294 294 295 296 297 298 298 299 299 300 300 300 300 300 300 300 300 299 298 296 295 294 292 291 289 288 287 286 286 286 286 286 285 284 284 284
292 292 291 290 290 290 290 291 291 291 291 291 291 290 291 292 291 291 291 290 290 289 288 288 288 288 288 289 289 289 289 289 289 289 289 289 289 290 290 290 290 290 290 291 291 291 292 292 292 293 293 293 293 294 295 295 296 297 297 298 299 300 300 300 299 299 299 299 298 297 296 295 293 292 290 288 287 286 285 285 285 285 285 285 285 285
291 291 290 290 290 290 290 290 290 290 290 290 290 290 290 291 290 290 289 289 288 287 287 287 287 287 287 288 288 287 287 287 287 288 288 288 288 288 288 288 289 289 289 289 290 291 291 292 292 292 292 293 293 293 293 293 294 295 296 297 298 299 299 299 299 299 298 298 298 298 297 295 293 291 290 288 286 285 285 284 284 284 284 284 285 285
290 290 290 290 289 289 289 289 290 289 289 289 290 290 290 290 289 289 288 287 286 286 285 285 286 286 287 287 286 286 285 285 285 285 285 285 285 286 286 286 286 287 287 288 288 289 289 290 291 292 292 292 293 293 294 294 294 295 296 297 298 298 298 298 298 298 297 297 297 297 296 294 292 290 288 287 286 284 283 282 282 283 283 283 284 285
290 290 290 290 289 289 289 289 289 289 289 289 289 289 288 288 288 287 287 285 284 284 284 283 283 284 285 285 285 284 283 283 283 283 282 283 283 284 284 284 284 285 285 286 285 286 287 288 289 291 292 292 293 294 295 295 295 296 296 297 297 298 298 297 297 297 296 296 296 296 295 293 291 289 286 285 284 283 282 280 280 281 281 283 284 285
Wind_Speed
13 6 3 7 11 12 9 10 14 13 9 9 9 8 9 8 10 13 11 7 8 6 7 12 15 15 19 19 17 24 25 20 20 21 24 30 33 36 40 43 43 44 49 50 46 42 37 34 34 37 37 35 37 39 40 41 42 43 44 43 41 40 39 39 39 38 37 38 39 40 40 40 39 38 37 36 34 33 32 32 31 31 30 29 27 26
9 7 7 13 15 11 8 10 13 12 10 11 9 9 10 7 11 14 10 7 6 5 8 11 14 15 17 18 16 17 14 13 20 19 22 29 32 36 40 43 45 47 49 47 43 40 34 31 31 35 36 35 38 40 40 42 42 43 43 43 41 40 40 40 40 39 38 38 38 38 37 38 38 38 38 37 35 33 33 33 32 32 32 30 28 27
5 6 11 16 13 8 7 8 9 10 10 9 8 8 8 6 10 12 8 7 4 5 8 9 11 13 15 16 15 13 12 17 28 28 29 33 30 34 40 43 45 45 44 43 40 37 32 29 29 32 34 34 37 39 40 41 41 42 43 42 42 41 41 40 39 39 38 37 37 36 35 35 36 37 37 36 34 33 33 33 34 33 33 31 29 28
5 7 13 16 10 9 12 10 8 8 8 8 9 8 9 7 8 10 6 3 3 4 6 7 9 9 10 14 13 17 21 24 32 35 37 38 33 37 45 45 45 44 41 39 36 32 29 27 28 30 31 33 36 39 40 40 41 42 43 42 42 41 40 39 39 38 38 37 36 36 36 35 35 35 35 35 35 34 35 35 35 35 33 32 30 29
11 8 11 13 11 12 14 11 8 6 8 11 11 9 11 10 11 12 7 3 3 4 4 5 9 8 9 15 15 15 20 21 28 31 33 39 39 41 48 46 44 46 43 39 34 31 29 28 29 29 30 32 36 38 40 40 40 41 41 41 41 40 40 39 39 38 38 38 38 38 38 37 37 36 36 37 38 38 37 37 36 35 34 33 32 30
12 11 9 8 9 12 12 10 8 7 9 12 10 12 15 14 13 13 8 6 5 6 3 1 8 9 7 14 14 9 9 11 17 19 23 34 38 38 43 43 42 42 39 36 33 31 30 29 28 29 30 32 35 37 37 37 38 39 39 39 39 39 39 39 39 39 39 40 40 40 41 42 42 42 42 42 41 40 39 38 37 36 35 34 33 31
7 11 11 10 10 11 9 8 7 11 9 11 7 11 14 12 10 10 6 3 4 6 4 3 2 9 5 7 10 7 7 10 11 11 16 26 31 33 39 40 39 38 32 29 28 27 28 28 28 30 31 32 34 35 34 35 36 37 37 37 38 38 38 38 39 40 40 41 41 41 42 43 43 44 43 42 41 39 37 36 36 36 36 35 33 32
4 7 9 12 12 8 8 9 9 11 8 8 3 8 9 8 8 7 4 5 4 4 5 2 3 7 11 6 10 11 11 11 11 9 12 18 27 34 37 38 38 37 32 27 25 26 27 28 28 29 29 30 31 31 32 34 35 35 36 36 36 37 37 38 39 39 40 40 41 41 42 43 43 43 41 39 38 37 37 36 36 36 37 36 34 33
2 5 8 11 9 7 8 8 8 11 7 5 2 5 6 5 5 2 3 4 1 4 6 4 6 4 13 8 9 11 11 10 12 13 12 15 25 34 36 38 36 34 34 30 27 26 26 26 26 26 26 27 28 29 31 32 32 33 34 35 36 37 38 38 38 39 39 39 39 40 41 41 42 41 40 39 37 37 37 36 37 37 37 36 35 34
0 3 5 7 6 7 6 3 6 10 8 4 5 3 4 3 2 4 1 1 3 5 7 5 7 4 13 8 6 6 7 9 11 12 13 16 25 33 34 35 33 30 31 30 27 26 25 23 22 23 24 26 27 27 29 30 31 32 34 35 36 37 38 38 38 39 38 38 38 38 39 39 40 40 40 40 39 38 38 37 38 39 38 37 35 34
4 1 1 4 5 5 4 3 1 4 4 2 6 4 6 5 4 4 1 4 3 8 6 9 11 8 9 5 6 6 6 10 10 8 10 12 19 29 31 30 28 27 27 26 24 24 22 20 20 22 24 25 26 26 28 30 31 32 34 35 36 37 37 38 38 39 39 37 36 36 36 37 38 39 39 40 41 41 40 40 40 40 39 37 36 35
6 2 1 3 4 5 6 3 3 3 2 4 4 4 4 5 4 5 4 5 2 10 5 12 14 12 10 6 3 4 5 9 10 8 10 10 15 26 30 26 24 24 24 22 21 21 20 20 20 21 23 24 25 26 29 31 31 33 34 35 37 37 38 38 39 39 39 38 36 35 35 35 36 37 38 40 41 42 42 42 42 41 40 38 37 37
6 8 7 2 3 7 5 2 3 6 3 4 4 5 1 4 3 3 4 1 4 8 5 10 9 8 13 7 2 6 7 7 8 9 13 12 15 25 28 24 22 22 23 22 21 20 21 21 19 19 21 23 25 27 29 30 31 33 35 36 37 37 37 38 39 39 40 39 36 35 35 34 34 35 37 39 41 42 43 43 43 42 41 40 40 39
4 7 6 3 3 10 10 5 4 3 3 6 6 6 5 3 1 2 4 3 5 7 5 5 6 5 9 4 8 13 12 12 12 15 20 20 21 26 25 23 22 21 22 22 22 22 22 21 18 17 19 22 26 28 29 30 32 34 35 37 37 37 37 38 39 40 41 40 37 36 36 35 35 35 36 38 40 42 43 44 44 43 42 41 40 39
4 9 6 8 4 10 14 13 11 5 4 7 5 6 5 5 5 4 5 6 5 6 5 3 5 4 4 2 9 12 12 12 16 24 27 26 28 26 22 22 20 19 20 20 21 21 21 18 17 18 18 20 25 28 30 31 33 35 36 37 37 37 37 38 39 40 41 40 38 37 38 38 37 35 35 38 40 41 43 44 44 43 42 40 39 38
5 11 7 7 3 11 13 12 10 6 1 4 4 4 4 5 6 5 5 6 2 3 6 3 4 6 4 6 8 7 9 9 14 21 20 22 28 27 24 23 20 19 19 20 20 19 18 17 16 18 18 19 24 28 30 32 34 36 36 37 37 36 37 38 39 39 40 40 40 39 39 40 40 38 36 36 38 41 43 44 43 43 42 40 38 37
5 7 3 2 2 5 6 4 6 6 3 2 4 4 4 3 6 5 6 3 2 4 7 4 5 6 5 7 7 6 8 7 7 10 10 17 26 27 28 26 21 20 20 20 19 17 17 17 16 18 18 19 22 25 28 31 34 36 36 37 37 37 38 39 39 39 40 41 42 41 40 40 42 42 38 34 35 39 42 43 43 42 41 40 39 37
6 6 4 5 2 4 2 2 1 2 5 6 4 6 2 3 2 3 2 3 1 6 7 6 10 8 6 8 4 4 2 5 7 8 9 15 21 24 28 26 20 20 21 20 18 16 17 17 17 18 19 20 21 22 25 30 34 36 36 37 37 38 39 39 40 40 41 42 43 42 42 41 41 42 42 38 37 38 40 42 43 43 43 42 40 39
5 6 6 5 5 3 1 2 2 2 4 6 3 2 3 1 2 2 3 3 5 7 7 10 13 9 7 9 5 3 5 8 11 11 11 13 14 19 26 24 20 21 22 20 18 17 17 16 18 19 19 20 21 22 25 31 36 37 37 37 38 39 39 40 41 42 42 43 43 43 44 43 43 44 45 44 42 40 40 41 43 44 44 43 42 41
4 5 6 2 2 2 2 2 5 2 1 1 1 2 1 3 4 4 4 3 5 9 8 10 11 10 9 7 4 7 9 9 9 9 9 11 13 20 27 28 26 24 22 20 17 16 16 16 17 19 19 19 20 21 24 31 36 37 37 38 39 41 42 42 43 43 43 44 45 46 46 46 47 46 47 48 46 44 41 41 42 44 45 45 44 43
3 5 8 2 2 1 2 4 7 7 5 3 2 4 3 2 2 1 2 2 4 7 7 8 9 10 9 3 3 6 7 8 9 9 9 11 16 25 29 30 28 24 22 19 16 15 16 17 18 19 21 21 22 23 25 31 36 37 38 39 39 41 44 45 45 45 45 45 46 48 48 48 49 48 48 49 49 47 45 43 43 43 45 46 45 44
1 4 7 1 0 5 5 5 9 11 9 7 7 7 6 6 3 3 6 4 4 5 5 7 8 10 10 2 3 2 4 6 8 9 9 12 20 28 27 23 22 21 19 16 16 18 18 17 18 20 23 25 25 24 27 33 37 37 37 37 39 42 43 44 46 47 47 47 48 50 50 50 51 51 50 51 51 51 48 47 45 44 45 46 45 44
1 1 5 4 4 7 6 4 7 10 8 5 4 5 4 4 4 6 8 5 4 5 4 7 9 9 12 9 4 5 4 5 9 9 8 13 22 26 21 18 17 17 16 17 20 22 21 20 21 24 27 29 27 26 30 35 37 37 35 34 36 39 38 40 44 48 50 50 50 50 50 51 52 52 52 52 53 53 51 49 48 47 46 46 46 45
4 0 3 5 4 5 5 2 2 3 3 2 2 4 4 4 6 7 7 5 6 7 5 8 10 7 12 14 10 11 10 6 9 13 13 15 19 18 13 13 15 17 19 22 24 24 24 25 26 29 32 32 31 30 32 36 38 37 35 33 34 34 33 36 42 47 50 51 52 51 52 53 53 53 54 54 54 54 53 51 50 49 48 46 46 45
4 1 2 2 3 5 5 4 4 2 2 2 3 5 6 8 9 7 5 4 6 10 10 11 9 7 12 16 13 14 16 9 9 14 16 14 12 10 10 14 18 22 24 26 26 26 27 28 30 35 36 34 33 33 35 39 40 38 36 35 34 31 32 36 40 44 47 49 52 53 54 54 54 54 55 54 53 53 53 52 51 50 49 47 46 46
1 2 1 1 4 6 6 6 6 3 1 1 3 8 12 14 15 11 7 6 9 12 13 12 11 11 15 19 19 21 21 16 14 17 18 17 17 18 21 24 27 28 29 30 30 29 28 30 33 36 36 35 35 35 38 41 42 41 38 36 33 32 35 37 39 41 43 46 48 52 54 55 55 55 55 54 53 53 53 53 51 50 49 48 47 46
2 4 7 10 10 10 10 11 9 4 4 6 8 12 14 15 17 13 8 10 11 11 12 13 15 17 17 18 22 24 24 23 22 19 18 20 26 30 32 32 31 32 34 34 32 30 29 31 35 35 35 35 36 37 38 40 42 42 39 35 33 35 38 39 40 41 42 43 45 48 51 53 56 56 55 53 53 53 53 52 51 50 49 47 46 46
2 5 12 17 19 18 18 20 19 15 14 16 15 16 15 13 14 13 12 14 13 11 13 15 18 20 18 17 23 26 27 27 24 18 17 20 26 31 32 30 29 32 35 34 31 30 29 31 34 34 34 36 37 38 39 40 42 42 38 35 36 38 40 41 41 42 42 42 43 45 47 50 54 55 54 53 53 53 52 52 51 50 48 47 46 45
3 7 13 16 21 23 23 25 25 22 21 20 18 19 20 19 17 16 17 19 16 15 15 15 18 20 17 18 22 25 26 26 24 25 27 27 27 27 25 25 28 33 36 34 32 31 30 32 35 36 37 38 38 38 39 40 41 41 38 38 40 42 43 42 42 42 41 42 42 43 44 47 51 53 53 53 53 52 52 51 51 49 48 46 45 44
4 7 11 16 19 20 22 24 25 25 23 21 21 22 22 22 22 21 22 21 21 21 20 19 22 22 18 17 20 24 28 28 27 33 35 33 33 33 27 23 27 35 38 35 34 35 33 33 35 38 39 38 37 37 38 39 40 40 41 43 45 45 45 44 44 43 41 41 41 41 43 45 48 51 52 53 52 52 52 51 51 50 48 47 45 45
7 8 11 13 14 14 18 21 22 24 24 24 25 23 22 24 24 24 23 20 19 21 23 24 24 21 17 19 22 28 33 30 26 29 33 38 43 39 27 24 29 36 38 38 39 40 36 34 36 38 37 36 36 37 39 40 41 42 45 47 47 46 45 45 44 43 42 41 41 41 42 44 47 50 52 53 52 52 51 51 50 50 48 47 46 46
6 7 7 8 9 9 14 19 22 24 25 25 25 23 24 24 23 22 21 19 19 21 23 23 20 15 17 21 23 25 28 28 24 23 29 39 46 38 27 27 35 38 39 40 42 43 40 38 38 38 36 36 37 39 41 42 43 45 47 47 45 45 45 44 43 42 42 41 41 42 42 44 46 49 51 52 52 51 51 50 50 49 48 47 47 47
6 6 6 7 9 8 13 20 22 20 18 16 17 24 29 27 24 22 20 21 22 21 18 17 16 17 19 20 19 21 23 23 23 25 30 37 40 37 31 32 36 39 40 41 43 44 42 42 43 40 35 35 37 39 40 42 44 45 45 43 42 42 43 42 42 41 42 42 42 43 42 44 46 48 50 50 50 50 50 50 50 49 48 47 47 48
6 8 8 7 8 9 13 15 13 12 11 8 10 20 27 27 26 25 23 25 26 22 18 18 19 21 21 18 18 20 20 24 28 32 33 32 30 30 32 34 38 42 44 42 41 42 43 44 45 41 36 37 40 41 40 40 41 41 40 38 39 40 40 40 40 40 41 42 42 42 42 44 45 47 48 49 49 50 50 50 50 48 47 47 47 49
8 9 8 5 4 5 5 6 8 8 7 5 7 15 21 25 28 28 26 27 26 24 24 25 24 23 21 19 19 20 22 29 33 33 33 32 28 26 29 36 41 44 45 44 43 46 46 44 44 42 40 43 46 45 41 38 37 37 37 38 38 38 37 38 38 40 41 41 42 42 43 44 45 46 48 49 49 50 50 50 49 48 47 47 48 49
12 9 6 5 5 4 3 6 10 9 4 1 3 9 14 17 19 20 22 24 25 25 25 25 24 23 21 20 20 25 30 31 29 30 30 25 21 22 25 27 31 34 35 35 35 40 43 44 44 45 44 45 47 44 40 36 35 35 36 37 37 37 36 37 38 39 40 41 42 42 43 44 46 47 48 49 49 50 50 50 49 48 47 47 48 49
15 12 9 9 9 8 10 11 12 14 11 6 6 8 11 14 14 15 18 17 13 12 14 14 15 16 15 12 15 23 26 21 16 16 16 23 28 28 28 28 29 31 32 31 29 28 30 34 38 40 41 42 43 40 36 33 33 33 35 36 36 36 36 37 38 39 40 40 41 42 44 45 46 47 48 49 50 50 50 50 49 48 47 48 49 51
15 13 12 11 9 9 14 15 12 15 15 10 10 12 15 19 20 18 17 9 6 15 16 13 13 14 14 13 19 22 15 8 5 5 18 31 32 30 32 32 32 33 33 33 33 30 28 28 28 29 31 31 31 31 31 31 32 32 33 34 35 35 36 38 38 38 39 39 40 42 44 45 46 48 49 50 50 50 50 50 49 49 48 48 50 51
12 12 11 9 7 9 13 13 11 12 8 6 7 6 8 15 13 10 12 6 9 16 14 14 14 13 13 14 17 17 10 4 2 7 22 34 33 32 34 35 38 39 38 37 36 35 34 33 30 27 24 22 21 21 24 27 29 30 32 32 32 33 34 36 37 38 38 38 40 42 43 44 46 48 49 49 50 50 50 49 49 48 48 48 50 51
7 6 7 7 8 12 14 12 9 7 1 9 12 13 18 17 4 1 5 4 10 15 12 12 10 10 14 16 15 11 8 6 7 15 29 36 35 37 38 37 39 42 41 40 39 38 38 37 33 29 26 24 22 17 14 17 22 26 29 29 29 30 30 31 34 37 39 40 41 42 43 44 46 48 49 49 49 50 49 48 48 47 48 49 51 51
4 4 6 7 9 14 16 14 10 6 2 8 10 15 23 18 2 4 3 6 12 19 17 13 12 14 18 16 11 9 10 12 16 25 34 36 37 42 44 40 40 41 40 39 38 37 39 38 35 31 28 26 26 22 16 14 16 20 24 26 27 28 27 28 31 35 38 40 42 42 43 44 46 47 48 49 49 49 48 47 47 47 47 50 52 52
3 4 5 6 7 10 11 11 11 5 4 11 14 17 20 12 2 2 9 15 18 19 20 20 19 20 20 17 14 15 20 24 26 29 33 37 39 42 43 42 42 42 42 42 41 38 38 38 37 35 31 27 25 24 22 19 17 17 21 24 27 28 27 28 31 33 36 39 41 42 43 44 46 47 48 49 48 48 47 46 46 46 48 51 54 53
4 6 7 6 6 7 7 8 8 4 7 17 18 14 12 6 6 10 15 19 19 18 20 24 24 24 23 24 25 25 25 28 30 31 33 36 37 37 39 39 39 40 41 42 43 41 39 37 36 36 33 29 26 23 23 22 20 19 21 24 26 27 28 29 30 32 35 38 40 42 43 45 46 48 48 49 48 47 46 45 46 47 50 53 54 53
4 5 6 5 3 4 4 4 4 5 8 15 12 7 8 12 15 15 12 12 15 19 19 20 23 26 26 26 29 30 29 29 31 31 31 33 33 34 36 37 38 39 39 39 39 38 36 34 34 34 33 31 29 25 23 22 21 21 24 28 29 29 29 29 30 31 33 36 39 42 43 45 46 48 48 49 48 47 46 45 46 48 51 54 54 52
3 4 5 5 4 4 4 6 11 13 13 13 11 13 19 21 16 13 11 11 14 18 17 16 21 25 25 25 27 29 30 31 31 31 31 32 34 35 36 36 38 38 38 38 38 38 37 37 37 36 34 32 30 29 26 23 22 25 27 29 31 32 32 30 30 30 31 34 37 40 43 44 46 47 48 49 48 48 47 47 48 51 53 55 54 52
6 9 9 5 6 8 8 11 14 15 18 24 24 20 19 16 12 10 10 10 13 16 16 16 20 23 25 26 26 27 29 31 33 35 35 35 36 37 37 38 39 38 38 40 42 43 42 43 43 42 41 38 34 31 29 28 27 28 29 29 31 33 33 30 30 31 31 33 35 37 40 43 45 47 48 49 49 48 48 48 50 53 56 57 55 53
6 8 8 6 8 10 10 10 10 13 22 30 29 21 13 9 8 11 10 10 13 16 18 20 23 25 27 27 25 27 31 33 34 38 39 39 39 39 38 39 40 41 42 42 44 44 44 44 45 44 44 43 40 35 32 32 31 30 31 32 33 33 33 32 32 32 33 34 35 37 39 41 44 46 48 49 50 50 50 51 52 55 59 60 59 55
6 7 7 7 9 9 10 11 16 24 29 28 26 24 16 7 8 13 14 15 16 18 21 23 25 28 30 29 27 28 32 35 36 37 38 39 39 39 39 40 41 43 44 44 44 43 42 43 43 43 43 45 45 41 37 37 36 34 33 34 35 35 35 35 35 35 35 35 36 38 40 42 45 47 48 50 52 53 54 54 55 57 60 62 62 58
10 9 7 8 9 10 11 11 15 20 21 21 24 24 15 12 16 18 19 21 22 23 25 26 27 29 30 32 32 30 31 35 36 34 35 39 41 41 40 41 43 43 44 44 43 41 41 41 42 42 43 44 44 43 41 40 39 38 35 35 37 37 37 37 37 37 38 37 38 40 43 45 46 48 49 51 53 55 55 55 56 58 59 59 57 55
9 8 7 7 7 8 9 9 10 9 9 16 22 17 10 16 23 23 24 27 27 27 26 26 28 31 30 31 32 31 32 35 37 35 36 38 40 41 42 43 44 44 45 45 43 42 42 41 41 41 43 44 43 42 41 41 40 38 36 37 38 39 39 39 39 39 41 41 41 43 45 47 49 50 51 52 54 56 56 55 56 57 57 55 52 49
11 10 9 8 7 10 15 16 13 8 8 17 24 18 13 17 21 24 27 29 26 24 24 24 27 31 31 31 32 32 33 36 38 37 37 38 41 43 44 46 47 48 49 49 46 43 42 40 38 38 40 41 40 38 38 38 36 35 35 36 38 40 41 41 41 42 43 43 44 45 47 49 50 51 52 53 55 57 57 56 55 54 53 51 49 45
Wind_Direction
179 181 165 192 225 226 208 198 217 234 242 252 257 261 257 255 264 260 265 246 185 199 227 224 236 241 249 255 252 257 262 263 261 253 246 247 250 254 256 259 259 260 265 271 271 270 272 269 264 258 252 247 244 243 241 239 236 234 232 231 232 233 234 234 232 230 228 227 226 227 228 229 230 230 231 232 232 233 232 232 232 232 232 233 234 236
178 191 211 213 227 230 203 200 219 233 239 250 253 260 261 248 262 260 259 257 196 200 248 236 243 249 249 256 256 253 255 256 254 251 248 248 250 254 257 259 261 264 267 271 271 272 273 267 258 251 245 241 240 239 238 237 235 233 232 232 233 233 234 235 235 234 233 233 232 232 233 232 232 233 234 234 235 235 233 233 232 232 232 233 235 235
206 223 225 221 232 243 232 215 215 228 233 244 245 256 263 248 268 267 250 256 208 191 252 250 247 253 253 257 258 250 240 245 251 252 253 254 254 257 260 261 263 265 266 268 269 271 270 264 252 243 239 239 239 239 238 237 235 233 232 231 232 233 235 236 237 236 236 236 236 237 237 236 236 235 236 237 237 237 236 235 234 232 232 234 235 236
227 231 226 222 226 236 246 238 223 244 247 240 239 249 259 248 263 267 249 252 221 206 252 266 259 255 260 265 261 249 243 245 252 253 256 258 256 258 261 262 263 265 266 266 267 267 264 256 246 237 235 236 236 236 235 234 234 233 232 232 232 234 235 236 236 236 236 235 235 235 236 236 237 237 237 236 236 236 235 234 234 233 233 234 236 237
237 227 210 208 212 223 242 243 221 240 257 244 234 233 250 248 243 252 272 321 286 278 286 289 286 268 236 249 256 249 244 245 250 253 256 258 256 258 262 262 262 263 265 265 264 261 256 249 243 237 234 235 235 234 234 234 234 234 233 233 233 234 235 235 236 235 234 232 231 230 229 229 230 231 231 232 232 232 233 233 234 234 235 235 236 237
245 235 207 194 211 219 232 242 208 197 249 258 231 214 236 246 245 255 289 334 316 295 283 220 283 277 205 225 248 251 241 240 243 243 248 253 254 255 259 262 263 263 263 263 264 259 253 247 240 234 232 234 235 235 236 236 236 236 234 234 234 234 235 235 234 234 233 231 230 229 227 226 226 226 228 231 233 233 234 235 235 234 235 236 236 236
237 228 208 202 216 214 220 244 211 190 234 269 228 199 224 241 254 264 278 299 265 265 268 132 251 282 253 215 234 233 228 237 236 232 239 246 249 247 250 257 263 265 263 262 262 256 248 243 236 232 232 235 237 236 235 235 235 235 234 234 234 234 234 234 233 232 232 231 231 232 232 232 232 232 234 237 238 239 240 239 237 236 235 235 235 236
206 207 201 211 220 210 215 240 216 184 213 267 223 182 205 227 248 251 224 222 234 274 281 164 132 282 281 236 206 206 210 229 238 238 242 242 242 243 245 252 259 263 264 262 259 253 246 241 238 236 236 239 240 237 233 233 232 232 232 232 233 233 233 233 232 232 232 232 232 233 234 235 237 239 242 243 242 242 241 240 238 237 236 235 235 236
167 186 206 206 206 207 216 228 194 169 204 253 164 160 171 189 217 165 165 227 295 337 280 207 135 263 280 250 192 202 206 221 236 234 238 238 239 243 245 249 255 261 263 262 258 254 248 245 243 240 241 243 241 237 234 233 232 231 230 230 231 231 232 232 232 232 233 234 234 234 235 236 238 240 242 243 243 243 241 239 237 235 235 235 234 235
244 191 202 173 179 217 214 201 165 171 215 226 118 98 71 71 61 79 159 198 43 306 259 192 147 225 278 261 173 189 205 215 233 231 233 235 237 243 244 247 253 257 259 259 259 257 252 246 245 243 242 243 240 237 235 232 230 229 228 228 229 229 230 231 232 232 232 233 233 235 236 237 238 238 239 240 240 239 239 238 236 234 233 233 233 233
259 73 85 172 193 202 143 91 105 167 206 124 94 54 28 12 25 54 355 77 58 276 238 175 175 192 269 278 149 175 198 199 212 223 239 243 240 246 249 249 253 253 252 254 255 256 249 236 234 238 240 241 239 235 231 229 228 228 227 227 228 228 230 231 231 232 232 231 232 234 236 238 239 239 239 239 238 237 236 235 234 233 233 233 233 234
259 228 236 220 186 129 96 79 355 15 61 90 92 76 23 327 10 30 352 61 208 263 215 180 183 183 233 264 154 226 241 201 198 201 226 239 239 244 247 250 254 253 250 248 247 249 243 228 225 233 237 237 235 231 228 226 225 225 226 226 227 228 228 230 231 232 231 230 231 233 235 237 238 239 240 240 241 239 237 236 235 233 233 233 233 233
266 233 215 198 182 169 140 90 345 348 29 104 107 105 69 296 341 356 310 81 223 254 224 189 180 198 239 250 217 271 283 229 209 206 214 221 231 237 241 252 258 252 247 243 238 240 240 234 232 239 241 234 227 224 222 222 222 223 223 224 225 226 227 228 230 231 231 229 230 232 233 235 236 238 240 241 242 242 241 239 238 236 235 233 233 233
286 269 202 148 247 192 164 169 234 274 182 161 147 145 170 215 236 266 260 259 256 262 252 186 165 239 277 275 210 227 238 221 209 214 219 222 227 227 235 255 261 247 241 237 231 234 240 242 246 252 248 234 223 218 217 219 220 221 222 223 224 225 226 228 230 231 231 230 230 233 234 234 234 236 239 241 242 242 242 242 241 241 240 239 238 238
252 287 195 159 218 183 174 203 208 166 156 184 157 148 180 181 175 207 235 249 267 287 279 181 161 235 294 280 212 217 236 230 215 219 223 228 231 226 233 254 254 236 230 226 223 232 239 243 251 256 250 235 223 217 216 217 220 221 222 222 222 223 224 227 229 231 231 230 230 232 234 234 234 234 237 240 242 243 243 243 243 242 242 242 242 241
222 272 223 168 150 158 178 215 192 126 107 222 125 122 219 203 188 222 256 239 217 321 288 213 201 239 250 256 241 235 257 250 227 226 226 231 234 231 236 243 236 222 216 215 220 234 240 240 248 252 248 236 225 219 219 220 221 223 222 222 222 222 224 226 228 230 231 231 230 232 233 234 234 233 234 238 241 243 243 243 243 243 243 243 242 240
227 277 245 157 53 156 179 212 171 158 203 199 127 183 219 168 171 223 283 294 126 263 271 231 235 277 313 282 256 227 242 256 259 251 239 235 235 234 237 235 222 213 213 217 227 242 246 246 251 252 247 238 227 224 227 228 228 227 225 225 224 224 225 227 228 230 231 231 231 231 233 234 234 234 234 235 239 241 241 241 242 242 242 241 240 238
230 268 252 178 215 251 196 104 249 203 144 129 179 214 196 63 121 165 243 319 284 249 264 261 260 280 301 282 300 44 300 264 261 250 237 237 234 234 240 236 221 216 218 222 234 249 254 255 257 252 244 238 232 231 237 239 236 232 230 230 228 227 228 229 229 230 231 232 232 231 232 234 235 235 236 236 237 238 239 239 239 239 239 238 237 236
221 250 260 183 186 250 65 127 275 323 122 139 205 211 118 151 228 157 175 226 246 246 260 273 275 273 250 256 291 320 266 247 239 233 232 237 236 237 243 242 231 221 222 229 238 249 255 258 261 252 242 238 234 238 247 247 241 237 236 235 233 232 232 233 232 232 232 233 233 233 233 235 235 236 237 236 236 236 237 239 239 238 237 236 235 234
208 228 250 216 185 209 53 180 196 208 196 107 351 333 90 178 187 185 182 168 222 243 257 271 280 275 251 241 246 242 234 232 236 236 237 239 240 242 242 241 235 225 226 235 241 249 255 262 265 253 241 240 241 249 258 254 246 242 240 239 238 236 234 234 234 234 234 234 234 235 235 235 236 237 237 237 237 236 236 237 238 237 237 235 234 234
198 224 237 272 357 231 199 207 181 178 196 184 215 248 246 221 174 221 238 172 209 236 245 251 262 270 262 191 157 235 225 213 220 219 227 235 238 242 244 242 237 230 231 235 239 254 263 269 272 258 242 239 243 251 262 261 252 246 243 243 243 241 237 236 236 235 235 235 235 236 236 236 237 237 237 237 237 237 236 236 236 236 236 235 234 234
204 232 239 215 292 244 239 220 186 181 183 179 199 213 214 220 219 256 250 221 217 234 235 245 252 264 268 192 117 240 212 201 216 212 220 231 231 237 245 246 241 234 232 239 251 262 266 269 276 274 259 247 245 255 268 267 256 247 245 247 248 246 243 242 241 239 238 237 236 237 237 237 238 238 238 238 237 237 236 236 235 235 234 233 233 234
360 203 258 253 230 247 258 239 202 199 187 164 190 205 201 210 206 234 248 246 260 254 240 254 253 257 271 273 290 297 258 216 226 221 226 240 235 234 236 237 240 240 242 256 266 267 270 273 280 287 276 256 250 262 272 271 259 248 246 250 250 250 251 252 249 244 241 239 239 239 239 239 239 238 238 239 238 237 236 235 234 233 233 232 232 232
343 81 270 277 289 301 305 306 222 188 149 122 216 203 191 212 215 227 250 273 278 266 257 263 258 260 277 280 294 302 290 259 238 229 224 234 238 234 230 235 250 258 260 263 265 268 274 278 283 288 281 261 253 263 271 272 264 251 247 250 250 252 259 261 256 249 244 243 243 242 241 240 240 239 238 239 239 238 236 235 234 233 232 231 230 230
319 351 33 312 297 304 308 303 268 220 164 185 211 206 208 227 235 241 261 273 264 255 251 261 264 258 271 278 288 289 282 275 252 237 231 236 243 242 247 255 261 265 268 269 269 269 272 279 286 288 280 264 258 266 273 273 265 253 250 253 252 257 265 265 260 254 249 247 245 244 243 242 240 239 239 239 239 238 237 236 234 233 232 230 229 228
248 207 115 231 241 248 248 254 246 210 193 229 217 221 224 227 233 239 249 247 243 240 236 245 254 251 259 272 278 276 272 268 258 247 244 249 258 261 262 265 269 273 277 276 275 273 276 284 289 283 273 263 263 270 275 274 265 254 253 254 254 262 268 266 263 258 253 249 247 245 244 242 241 240 239 238 239 239 238 237 235 233 232 230 229 227
152 192 205 217 223 232 235 243 246 217 217 246 242 234 231 230 232 232 233 238 241 244 238 235 243 249 252 260 269 271 270 269 265 258 252 249 253 259 264 269 273 276 277 276 276 278 282 285 280 271 262 259 265 272 275 273 266 256 252 253 257 265 268 266 263 259 254 251 248 246 246 245 243 241 239 239 239 239 238 237 236 234 232 231 229 227
161 205 215 221 224 229 235 243 248 246 242 246 247 244 242 237 232 231 233 236 238 248 249 236 236 247 249 248 257 265 268 270 269 268 267 259 254 256 261 266 268 269 271 273 276 279 280 277 271 265 261 260 266 272 273 271 266 256 251 255 262 266 267 265 262 257 255 252 250 249 248 247 244 241 238 238 238 237 237 237 236 235 233 230 228 226
204 225 220 225 230 229 233 239 243 247 249 248 248 249 249 246 239 236 239 239 235 240 250 247 242 247 249 245 251 256 260 266 272 278 279 274 266 261 257 257 261 267 272 275 278 278 273 268 266 265 264 265 267 270 270 269 263 255 253 259 265 267 267 265 260 256 254 252 252 252 250 246 243 240 237 236 236 236 237 236 235 234 232 230 227 226
207 229 217 227 238 233 231 236 239 243 248 249 248 246 248 250 247 243 244 244 242 245 253 257 255 253 253 252 254 257 260 267 277 282 281 278 273 266 257 254 263 272 277 280 281 279 272 266 266 267 267 266 266 267 268 266 260 256 258 263 266 267 267 263 259 256 255 254 254 252 248 244 242 239 236 235 235 235 235 235 234 233 231 229 227 225
206 219 210 224 244 238 232 236 236 236 241 244 245 245 246 249 250 250 250 249 249 252 252 252 255 257 257 255 256 259 264 268 271 273 275 273 271 269 267 270 274 277 280 283 284 282 276 270 270 270 269 267 266 266 266 264 260 258 261 264 266 266 265 261 258 256 256 256 254 249 245 243 241 238 236 235 234 234 234 234 233 232 230 228 226 224
210 228 220 230 250 237 228 234 234 234 237 239 241 244 244 243 243 244 244 241 240 246 250 250 252 253 250 250 251 254 258 261 260 261 265 266 269 274 281 281 278 279 281 282 282 281 279 277 275 274 273 272 269 267 266 263 260 260 262 265 267 265 262 260 258 257 256 255 251 247 245 243 241 238 236 234 234 233 233 233 232 231 229 226 225 224
202 227 230 234 252 245 231 234 234 233 236 235 230 233 236 237 239 242 245 244 240 238 244 246 244 244 245 245 247 249 249 250 250 251 255 263 270 278 283 280 279 281 280 279 279 279 279 281 280 279 279 279 275 272 270 266 263 263 265 267 266 264 262 260 258 257 255 252 249 247 245 242 239 237 235 234 234 233 232 232 231 230 228 226 225 224
211 230 238 239 255 254 241 242 241 233 235 231 211 220 228 233 236 239 241 241 239 237 238 241 244 247 249 246 244 244 245 247 251 254 259 267 275 280 282 282 281 281 281 280 280 280 280 281 281 280 281 282 282 280 276 270 268 268 266 264 263 262 261 259 257 255 252 250 248 246 243 241 238 236 235 234 233 232 232 231 231 229 228 226 224 223
235 236 240 237 252 263 254 254 252 239 234 231 211 215 223 229 234 240 244 244 244 244 244 246 248 248 249 251 250 250 252 256 260 264 268 273 280 289 294 294 293 292 292 291 288 285 283 280 280 280 280 284 287 285 279 274 274 270 263 259 259 259 258 256 254 252 250 248 246 244 242 240 237 235 234 233 232 232 231 231 229 228 226 225 224 223
235 238 238 236 245 256 244 233 246 262 273 190 201 211 221 232 238 245 253 252 251 252 252 254 255 255 257 258 260 262 263 265 268 270 277 294 321 341 340 330 326 325 322 319 310 299 293 288 284 282 282 284 286 283 279 279 279 270 261 258 258 256 255 253 251 249 248 246 246 244 242 239 236 234 233 232 231 230 229 229 228 227 225 224 222 222
223 229 234 240 236 239 251 248 253 271 270 241 214 202 206 216 215 227 246 251 259 285 298 295 287 290 293 297 308 298 283 277 275 275 313 354 3 1 357 353 351 349 348 349 347 335 320 308 297 291 288 288 286 283 282 282 279 271 261 256 256 254 251 250 248 247 247 246 245 244 241 239 236 234 232 231 230 230 229 228 227 225 224 222 220 219
227 226 230 240 227 228 251 254 254 262 260 249 233 213 207 212 209 216 235 242 17 10 4 11 7 358 356 356 352 341 318 288 264 308 358 359 353 348 348 345 344 345 346 348 350 351 348 339 326 312 301 296 293 289 286 282 278 273 264 257 254 252 249 247 246 246 245 245 245 243 240 238 236 233 232 231 231 230 229 227 226 224 223 221 219 217
251 241 239 248 242 238 247 247 249 255 265 315 303 276 266 254 237 231 240 243 15 1 1 23 21 13 14 3 357 1 5 357 323 335 344 341 337 338 337 333 333 335 335 337 340 342 344 345 346 342 331 321 312 299 290 286 280 273 266 259 254 252 251 251 250 248 246 244 243 242 240 238 236 234 233 233 232 231 228 226 225 223 222 220 219 217
289 261 250 248 248 253 254 256 262 251 327 2 339 336 330 311 300 100 250 275 355 339 345 20 19 11 9 359 359 14 17 360 329 318 324 327 324 324 324 324 326 327 328 331 334 335 336 337 341 346 346 339 332 322 308 299 288 276 268 262 256 255 259 262 259 253 248 244 241 240 239 239 237 235 235 234 232 230 228 226 224 222 220 219 216 214
324 292 266 257 252 251 248 253 260 239 76 9 343 348 342 328 323 125 270 309 326 316 325 357 7 2 357 350 355 356 327 316 312 308 314 318 317 319 321 321 322 323 325 328 329 331 334 333 332 334 336 334 332 332 334 330 309 289 275 266 264 267 271 271 264 257 252 247 243 241 240 239 238 236 235 233 231 228 226 225 224 223 220 217 214 211
325 299 279 282 287 277 265 265 265 241 62 19 357 4 6 350 292 312 316 307 303 309 330 346 347 345 339 331 331 322 309 310 312 309 313 316 315 317 319 321 324 326 326 327 327 330 332 330 328 327 327 327 327 327 331 335 328 311 290 278 279 283 281 272 266 262 257 251 247 245 242 240 238 236 233 231 229 227 225 224 224 223 220 216 213 210
303 296 293 288 287 290 286 281 268 249 27 12 358 6 31 22 294 303 309 307 313 331 341 337 331 331 328 323 321 316 311 313 314 313 315 315 316 318 320 322 325 325 325 326 326 328 330 329 326 325 323 321 319 319 322 323 324 321 309 300 299 298 290 281 274 269 263 257 252 248 244 241 238 235 233 230 228 226 225 224 222 221 219 215 212 210
257 262 278 282 296 302 281 285 300 305 348 6 6 348 334 320 304 301 299 303 323 333 329 321 321 325 327 324 320 319 319 318 318 320 321 320 321 322 321 323 324 324 325 326 325 327 330 328 326 326 324 320 314 313 314 312 312 311 307 307 309 305 299 294 287 276 267 261 256 250 246 242 238 236 233 230 227 224 223 222 221 218 216 213 211 210
274 286 284 279 292 291 255 277 303 307 317 334 333 314 313 314 309 305 297 291 308 321 322 320 323 327 329 328 324 321 319 319 320 322 323 322 321 320 320 321 321 321 322 321 320 322 323 321 319 319 319 318 314 311 308 306 302 298 297 301 304 302 298 295 291 284 275 266 259 253 247 242 238 235 233 230 227 224 222 220 218 215 213 210 210 211
309 310 304 297 298 295 279 278 290 304 313 312 310 313 315 311 312 320 315 308 321 335 338 334 329 328 328 328 325 320 317 318 319 318 318 317 316 315 315 315 314 314 314 313 313 314 314 313 312 310 309 311 310 308 307 304 300 296 294 296 299 297 292 285 282 283 278 271 263 255 248 243 239 236 233 230 228 226 223 220 216 214 211 208 208 210
297 298 295 297 301 296 291 291 297 306 304 301 305 314 315 303 320 339 337 331 334 337 335 332 329 326 325 324 321 316 314 315 315 314 314 314 313 312 313 313 312 312 311 310 311 311 310 310 309 307 306 305 304 304 303 300 298 296 294 293 293 292 287 280 274 273 272 271 266 258 251 247 242 238 234 230 227 224 222 219 216 214 211 208 207 208
292 312 305 287 283 280 284 299 300 294 291 293 305 317 320 327 344 337 326 324 327 327 328 329 328 326 324 321 317 314 312 311 311 312 312 312 312 312 312 312 311 310 310 310 310 309 308 307 305 304 303 301 300 301 300 297 296 296 293 291 288 284 280 277 274 270 266 265 263 259 254 250 245 240 236 231 227 222 220 217 215 214 213 211 209 208
276 296 285 270 280 286 285 289 289 286 288 298 307 312 318 328 330 326 321 323 327 329 330 329 326 324 321 317 315 314 311 310 310 312 311 310 310 311 311 311 310 310 309 309 308 306 305 302 301 300 298 297 297 297 296 294 294 294 292 290 286 281 275 272 270 267 262 258 257 255 252 248 243 239 235 231 226 222 219 217 215 214 214 213 212 211
264 274 268 266 279 280 274 279 286 288 293 298 302 311 326 319 314 315 320 325 329 331 331 328 322 320 318 316 316 315 312 310 311 311 310 309 309 310 311 310 309 308 307 306 304 302 299 297 296 296 294 293 293 294 294 294 293 293 292 289 286 282 276 271 267 263 258 254 252 251 248 243 239 235 231 227 224 219 216 213 213 213 212 211 211 211
245 247 252 258 261 261 268 279 284 279 273 283 291 306 323 315 308 311 317 323 327 328 325 321 318 318 317 316 316 314 311 310 312 312 311 309 309 309 310 310 309 308 307 305 303 300 298 297 298 297 296 295 296 295 294 294 293 292 292 289 286 283 278 272 267 262 257 253 252 250 246 241 237 232 227 223 220 217 211 207 207 208 209 209 209 208